Madera, CA

8:35 AM PDT on October 18, 2017 (GMT -0700)
Madera Municipal

Weather History for KMAE - November, 2012

Change the Weather History Date:

Wednesday, November 7, 2012

  Actual Average Record
Temperature  
Mean Temperature 64 °F 56 °F  
Max Temperature 81 °F 69 °F 81 °F (2012)
Min Temperature 47 °F 43 °F 33 °F (2011)
Degree Days  
Heating Degree Days 1    
Month to date heating degree days 24  
Since 1 July heating degree days 101  
Cooling Degree Days 0    
Month to date cooling degree days 0  
Year to date cooling degree days 1737  
Growing Degree Days 14 (Base 50)    
Moisture  
Dew Point 47 °F    
Average Humidity 63    
Maximum Humidity 93    
Minimum Humidity 33    
Precipitation  
Precipitation 0.00 in 0.04 in 0.62 in (2002)
Month to date precipitation 0.01 0.31  
Year to date precipitation 6.34 9.48  
Since 1 July precipitation 0.12  
Snow  
Snow 0.00 in - - ()
Month to date snowfall 0.0  
Since 1 July snowfall 0.0  
Since 1 September snowfall 0.0  
Snow Depth 0.00 in    
Sea Level Pressure  
Sea Level Pressure 29.96 in    
Wind  
Wind Speed 2 mph (NW)    
Max Wind Speed 7 mph    
Max Gust Speed 10 mph    
Visibility 10 miles    
Events      
T = Trace of Precipitation, MM = Missing Value Source: NWS Daily Summary

Daily Weather History Graph

Daily Weather History Graph

Search for Another Location

Airport or City:

Trip Planner

Search our weather history database for the weather conditions in past years. The results will help you decide how hot, cold, wet, or windy it might be!

Date:

Astronomy

Nov. 07, 2012 Rise Set
Actual Time 6:31 AM PST 4:56 PM PST
Civil Twilight 6:04 AM PST 5:23 PM PST
Nautical Twilight 5:33 AM PST 5:54 PM PST
Astronomical Twilight 5:02 AM PST 6:25 PM PST
Moon No Moon Rise 12:59 PM PST (11/7)
Length of Visible Light 11h 19m
Length of Day
10h 25m
Last Quarter, 42% of the Moon is Illuminated
Nov 7
Last Quarter
Nov 13
New
Nov 20
First Quarter
Nov 28
Full
Dec 6
Last Quarter

Hourly Weather History & Observations

Time (PST) Temp. Dew Point Humidity Pressure Visibility Wind Dir Wind Speed Gust Speed Precip Events Conditions
12:53 AM 52.0 °F 48.0 °F 86% 30.03 in 10.0 mi Calm Calm - N/A   Clear
1:53 AM 53.1 °F 48.0 °F 83% 30.02 in 10.0 mi Calm Calm - N/A   Clear
2:53 AM 50.0 °F 45.0 °F 83% 30.01 in 10.0 mi East 3.5 mph - N/A   Clear
3:53 AM 51.1 °F 45.0 °F 80% 30.00 in 10.0 mi Calm Calm - N/A   Clear
4:53 AM 48.0 °F 46.0 °F 93% 30.01 in 10.0 mi Calm Calm - N/A   Clear
5:53 AM 48.0 °F 44.1 °F 86% 30.01 in 10.0 mi Calm Calm - N/A   Clear
6:53 AM 46.9 °F 44.1 °F 90% 30.03 in 10.0 mi Calm Calm - N/A   Clear
7:53 AM 55.9 °F 45.0 °F 67% 30.04 in 10.0 mi Calm Calm - N/A   Clear
8:53 AM 63.0 °F 45.0 °F 52% 30.04 in 10.0 mi ESE 3.5 mph - N/A   Clear
9:53 AM - - N/A% 30.03 in - North - - N/A   Unknown
10:53 AM 72.0 °F 51.1 °F 48% 30.01 in 6.0 mi Calm Calm - N/A   Haze
11:53 AM 75.0 °F 51.1 °F 43% 29.98 in 6.0 mi Calm Calm - N/A   Haze
12:53 PM 78.1 °F 48.9 °F 36% 29.95 in 9.0 mi Calm Calm - N/A   Clear
1:53 PM 80.1 °F 48.9 °F 34% 29.92 in 10.0 mi West 3.5 mph - N/A   Clear
2:53 PM 81.0 °F 48.9 °F 33% 29.91 in 10.0 mi WNW 3.5 mph - N/A   Clear
3:53 PM 79.0 °F 48.0 °F 34% 29.91 in 10.0 mi WNW 4.6 mph - N/A   Clear
4:53 PM 70.0 °F 52.0 °F 53% 29.91 in 10.0 mi NW 3.5 mph - N/A   Clear
5:53 PM 64.9 °F 50.0 °F 58% 29.91 in 10.0 mi Calm Calm - N/A   Clear
6:53 PM 60.1 °F 52.0 °F 75% 29.91 in 10.0 mi Calm Calm - N/A   Clear
7:53 PM 61.0 °F 51.1 °F 70% 29.91 in 9.0 mi Calm Calm - N/A   Clear
8:53 PM 57.9 °F 45.0 °F 62% 29.91 in 10.0 mi NW 5.8 mph - N/A   Clear
9:53 PM 55.9 °F 44.1 °F 64% 29.91 in 10.0 mi NW 4.6 mph - N/A   Clear
10:53 PM 54.0 °F 46.0 °F 75% 29.90 in 10.0 mi Calm Calm - N/A   Clear
11:53 PM 51.1 °F 45.0 °F 80% 29.89 in 9.0 mi NNW 4.6 mph - N/A   Clear